Content
SEND FEEDBACK

Daily
Averages
Monthly
Summary
United States of America

SOUTH LAKE TAHOE, CALIFORNIA


Home > North America > United States > California
Elevation: 6263 feet     Latitude: 38 53N     Longitude: 119 59W

WEATHER
 
SELECT A DAY
Number of Records: 177,905;   Date Range: 1/1/95 - 11/26/14
 
SHARE

PRINT THIS DATA

[ ← Previous Day ]
WEATHER ALMANAC - FEBRUARY 28, 2013
[ Next Day → ]
[ °C ]   °F
Weather ElementAverageHighLow
Temperature39 °F53.1 °F (2:53 pm)26.1 °F (6:53 am)
Dewpoint23.8 °F28.9 °F (11:53 am)16 °F (5:53 am)
Humidity56.6 %82 % (10:53 pm)38 % (2:53 pm)
Barometer30.42 in30.49 in (6:53 pm)30.35 in (1:53 am)
Wind Speed2.4 mph9.2 mph (2:53 pm)
Weather ElementAverage
Visibility10 mi
Wind DirectionNNE (27.5 °)

Weather ElementTotal
Precipitation---
Heating Degree Days25.4 (Base 65)
Averaged from 20 records on February 28, 2013
WEATHER CONDITIONS BREAKOUT
WIND DIRECTION BREAKOUT
WEATHER BY HOUR - FEBRUARY 28, 2013
[ °C ]   °F
Local TimeTemperatureDewpointHumidityBarometerVisibilityWind DirectionWind SpeedGust SpeedPrecipitationEventsConditions
1:53 AM28.9 °F19.0 °F67 %30.35 in10.0 miCalmClear
2:53 AM28.0 °F17.1 °F63 %30.35 in10.0 miSSW (200°)3.5 mphClear
4:53 AM28.0 °F17.1 °F63 %30.37 in10.0 miCalmPartly Cloudy
5:53 AM27.0 °F16.0 °F63 %30.40 in10.0 miCalmMostly Cloudy
6:53 AM26.1 °F16.0 °F66 %30.45 in10.0 miCalmClear
7:53 AM30.0 °F17.1 °F59 %30.45 in10.0 miCalmOvercast
8:53 AM37.0 °F19.0 °F48 %30.44 in10.0 miCalmClear
9:53 AM45.0 °F25.0 °F46 %30.43 in10.0 miSSW (200°)3.5 mphClear
10:53 AM48.0 °F28.0 °F46 %30.42 in10.0 miNNE (30°)4.6 mphClear
11:53 AM50.0 °F28.9 °F44 %30.42 in10.0 miNNE (20°)6.9 mphClear
12:53 PM51.1 °F28.0 °F41 %30.40 in10.0 miNNE (30°)8.1 mphClear
1:53 PM52.0 °F28.0 °F40 %30.37 in10.0 miNNE (30°)8.1 mphClear
2:53 PM53.1 °F28.0 °F38 %30.38 in10.0 miNNE (30°)9.2 mphClear
3:53 PM51.1 °F27.0 °F39 %30.40 in10.0 miCalmClear
4:53 PM48.0 °F28.0 °F46 %30.41 in10.0 miNorth (10°)3.5 mphClear
5:53 PM42.1 °F28.0 °F58 %30.45 in10.0 miCalmClear
6:53 PM37.9 °F28.0 °F68 %30.49 in10.0 miCalmClear
8:53 PM34.0 °F27.0 °F75 %30.49 in10.0 miCalmClear
9:53 PM32.0 °F26.1 °F79 %30.49 in10.0 miCalmClear
10:53 PM30.0 °F25.0 °F82 %30.49 in10.0 miCalmClear
Hourly data recorded from KTVL, located miles away from South Lake Tahoe, California







STORIES FROM OUR PARTNERS